Regional Weather Roundup
Issued by NWS

Home | Current Version | Previous Version | Graphics & Text | Print | Product List | Glossary On
Versions: 1 2 3 4 5 6 7 8 9 10 11 12 13 14 15 16 17 18 19 20 21 22 23 24 25 26 27 28
000
ASUS45 KSLC 260010
RWRUT

UTAH REGIONAL WEATHER ROUNDUP
NATIONAL WEATHER SERVICE SALT LAKE CITY UT
600 PM MDT MON JUL 25 2016

UTZ001>011-023>025-260100-

NORTHERN UTAH

CITY           SKY/WX    TMP DP  RH WIND       PRES   REMARKS
BRIGHAM CITY     N/A     96  23   7 SE3       30.01S HX  90
HILL AFB       SUNNY     94  30  10 W2        30.06F
LOGAN          SUNNY     95  36  12 S8        30.02F HX  90
OGDEN          SUNNY     95  29   9 VRB3      30.02F
PROVO AIRPORT  MOSUNNY   99  39  12 NW6       30.00S HX  94
SALT LAKE CITY MOSUNNY  100  30   8 N5        29.99S HX  94
VERNAL         MOSUNNY   89  34  14 W15       30.13S
WENDOVER       SUNNY     97  32  10 S7        29.99F HX  91
HEBER CITY     MOSUNNY   95  30  10 CALM      30.10S

$$

UTZ012>022-026-027-260100-

SOUTHERN/CENTRAL UTAH

CITY           SKY/WX    TMP DP  RH WIND       PRES   REMARKS
BLANDING       PTSUNNY   91  35  14 SW7       30.22S
BRYCE CANYON   PTSUNNY   77  42  28 SE6       30.33S
CEDAR CITY     MOSUNNY   95  42  16 SW13      30.11F HX  91
DELTA          MOSUNNY   99  27   8 N6        30.00F HX  92
MILFORD        NOT AVBL
MOAB/CYNLANDS  CLOUDY    96  34  11 W23G33    29.99S HX  91
PRICE          CLOUDY    86  36  16 S7        30.19F
ST GEORGE      PTCLDY   106  46  13 W13       29.90S HX 102

$$

REGIONAL REPORTS     COLORADO/ARIZONA

CITY           SKY/WX    TMP DP  RH WIND       PRES   REMARKS
CRAIG, CO      CLOUDY    86  32  14 S10       30.19S
GRAND JUNCTION MOSUNNY   96  30   9 SW10      30.06S HX  90
RIFLE          CLOUDY    93  29  10 CALM      30.13F
MONTROSE       CLOUDY    84  45  25 SW7       30.20S
CORTEZ         CLOUDY    92  40  16 W6        30.15F
PAGE, AZ       MOSUNNY  100  42  13 N14       30.01S HX  95
GRAND CANYON   CLOUDY    74  50  42 S8        30.29R
KINGMAN        SUNNY    100  49  17 W15       29.98F HX  97
FLAGSTAFF      LGT RAIN  60  54  80 W8        30.38R

$$

REGIONAL REPORTS    NEVADA/IDAHO/WYOMING

CITY           SKY/WX    TMP DP  RH WIND       PRES   REMARKS
LAS VEGAS, NV  MOSUNNY  109  34   7 S8        29.77F HX 102
ELY            SUNNY     94  19   6 MISG      30.13F
ELKO           SUNNY     98  11   4 W18       30.06F HX  91
POCATELLO, ID  SUNNY     95  24   8 W9        30.05F
BURLEY         SUNNY     91  32  12 W8        30.01F
EVANSTON, WY   CLOUDY    88  21   8 W20G30    30.26R
ROCK SPRINGS   CLOUDY    84  27  12 SW22G32   30.23R
KEMMERER         N/A     86  23  10 W21G26    30.26S

$$




USA.gov is the U.S. government's official web portal to all federal, state and local government web resources and services.